Torna al catalogo

DELTA 1 DEB

AttivoSSO
NORAD 15788·DEBRIS·🇺🇸 United States

Lanciato Mar 5, 1978 da Vandenberg Space Force Base

Loading…

Prossimi Passaggi (prossime 24 ore)

TLE

AggiornatoSource: Space-Track

Epoca: Sep 14, 2026, 05:18 UTC

1 15788U 78026GT  26257.22143918  .00000823  00000-0  62108-3 0  9997
2 15788  98.8852 168.0074 0118844 340.1374 173.7564 13.93673998215442

Traccia DELTA 1 DEB in tempo reale con AllMySat

Download on the App Store